Weather History for Scottsbluff, NE

Change the Weather History Date:

Friday, April 26, 2013

  Actual Average Record
Temperature  
Mean Temperature 53 °F 50 °F  
Max Temperature 73 °F 65 °F 89 °F (1981)
Min Temperature 33 °F 35 °F 21 °F (1932)
Degree Days  
Heating Degree Days 12 15  
Month to date heating degree days 674 495  
Since 1 July heating degree days 6012 6236  
Cooling Degree Days 0 0  
Month to date cooling degree days 0 0  
Year to date cooling degree days 0 0  
Growing Degree Days 3 (Base 50)    
Moisture  
Dew Point 30 °F    
Average Humidity 47    
Maximum Humidity 61    
Minimum Humidity 32    
Precipitation  
Precipitation 0.00 in 0.07 in 1.00 in (1922)
Month to date precipitation 2.25 1.56  
Year to date precipitation 3.00 3.57  
Snow  
Snow 0.00 in 0.10 in 3.70 in (1994)
Month to date snowfall 21.9 5.0  
Since 1 July snowfall 44.8 41.2  
Snow Depth 0.00 in    
Sea Level Pressure  
Sea Level Pressure 30.08 in    
Wind  
Wind Speed 6 mph (NW)    
Max Wind Speed 13 mph    
Max Gust Speed 17 mph    
Visibility 10 miles    
Events      
T = Trace of Precipitation, MM = Missing Value Source: NWS Daily Summary

Daily Weather History Graph

Daily Weather History Graph

Search for Another Location

Airport:

Trip Planner

Search our weather history database for the weather conditions in past years. The results will help you decide how hot, cold, wet, or windy it might be!

Date:

Astronomy

Apr. 26, 2013 Rise Set
Actual Time 5:57 AM MDT 7:47 PM MDT
Civil Twilight 5:27 AM MDT 8:17 PM MDT
Nautical Twilight 4:50 AM MDT 8:54 PM MDT
Astronomical Twilight 4:11 AM MDT 9:33 PM MDT
Moon 9:14 PM MDT (4/26) 6:25 AM MDT (4/26)
Length of Visible Light 14h 50m
Length of Day
13h 50m
Full, 99% of the Moon is Illuminated
Apr 26
Full
May 2
Last Quarter
May 9
New
May 17
First Quarter
May 24
Full

Hourly Weather History & Observations

Time (MDT) Temp. Windchill Dew Point Humidity Pressure Visibility Wind Dir Wind Speed Gust Speed Precip Events Conditions
12:53 AM 39.2 °F 35.0 °F 19.4 °F 45% 29.99 in 10.0 mi Variable 5.8 mph - N/A   Clear
1:53 AM 39.0 °F 34.0 °F 19.9 °F 46% 29.95 in 10.0 mi WNW 6.9 mph - N/A   Clear
2:53 AM 36.0 °F 29.0 °F 21.9 °F 57% 29.97 in 10.0 mi NW 9.2 mph - N/A   Clear
3:53 AM 36.0 °F 29.0 °F 21.9 °F 57% 29.99 in 10.0 mi NW 9.2 mph - N/A   Clear
4:53 AM 36.0 °F 29.0 °F 21.0 °F 55% 30.01 in 10.0 mi NW 9.2 mph - N/A   Clear
5:53 AM 34.0 °F 27.2 °F 21.9 °F 61% 30.04 in 10.0 mi NW 8.1 mph - N/A   Clear
6:53 AM 36.0 °F 29.0 °F 23.0 °F 59% 30.07 in 10.0 mi NW 9.2 mph - N/A   Clear
7:53 AM 43.0 °F 36.8 °F 26.1 °F 51% 30.09 in 10.0 mi NW 11.5 mph - N/A   Clear
8:53 AM 51.1 °F - 28.0 °F 41% 30.11 in 10.0 mi NW 11.5 mph - N/A   Clear
9:53 AM 57.9 °F - 30.9 °F 36% 30.12 in 10.0 mi WNW 9.2 mph - N/A   Clear
10:53 AM 64.9 °F - 35.1 °F 33% 30.12 in 10.0 mi NW 3.5 mph - N/A   Clear
11:53 AM 69.1 °F - 39.9 °F 35% 30.11 in 10.0 mi Variable 6.9 mph - N/A   Clear
12:53 PM 68.0 °F - 37.9 °F 33% 30.11 in 10.0 mi Variable 3.5 mph - N/A   Scattered Clouds
1:53 PM 71.1 °F - - N/A% 30.09 in 10.0 mi Variable 3.5 mph - N/A   Partly Cloudy
2:53 PM 70.0 °F - 42.1 °F 36% 30.11 in 10.0 mi Variable 3.5 mph - N/A   Overcast
3:53 PM 70.0 °F - 41.0 °F 35% 30.10 in 10.0 mi East 3.5 mph - N/A   Mostly Cloudy
4:53 PM 71.1 °F - 42.1 °F 35% 30.08 in 10.0 mi Calm Calm - N/A   Scattered Clouds
5:53 PM 71.1 °F - 42.1 °F 35% 30.09 in 10.0 mi WSW 5.8 mph - N/A   Partly Cloudy
6:53 PM 70.0 °F - 41.0 °F 35% 30.09 in 10.0 mi Calm Calm - N/A   Clear
7:53 PM 62.1 °F - 32.0 °F 32% 30.09 in 10.0 mi SE 5.8 mph - N/A   Clear
8:53 PM 53.1 °F - 25.0 °F 34% 30.12 in 10.0 mi East 5.8 mph - N/A   Clear
9:53 PM 46.9 °F - 25.0 °F 42% 30.13 in 10.0 mi ESE 5.8 mph - N/A   Clear
10:53 PM 45.0 °F 43.5 °F 26.1 °F 48% 30.12 in 10.0 mi East 3.5 mph - N/A   Clear
11:53 PM 44.1 °F 39.5 °F 27.0 °F 51% 30.11 in 10.0 mi East 8.1 mph - N/A   Clear